Regional Weather Roundup
Issued by NWS Sioux Falls, SD

Home | Current Version | Previous Version | Graphics & Text | Print | Product List | Glossary On
Versions: 1 2 3 4 5 6 7 8 9 10 11 12 13 14 15 16 17 18 19 20 21 22 23 24 25 26 27 28 29 30 31 32 33 34 35 36 37 38 39 40 41 42 43 44 45 46 47 48 49 50
000
ASUS43 KFSD 230010
RWRFSD

WEATHER ROUNDUP FOR SE SOUTH DAKOTA/SW MINNESOTA/NW IOWA
NATIONAL WEATHER SERVICE SIOUX FALLS SD
700 PM CDT MON SEP 22 2014

NOTE: "FAIR" INDICATES FEW OR NO CLOUDS BELOW 12,000 FEET WITH NO
SIGNIFICANT WEATHER AND OR OBSTRUCTIONS TO VISIBILITY.


SDZ038>040-050-052>070-230100-
SOUTHEAST SOUTH DAKOTA

CITY           SKY/WX    TMP DP  RH WIND       PRES   REMARKS
CHAMBERLAIN    MOCLDY    70  49  47 S13       30.05R
6HR MIN TEMP:  70; 6HR MAX TEMP:  78;

HURON          CLEAR     72  48  42 S13G22    30.05F
6HR MIN TEMP:  72; 6HR MAX TEMP:  77;

MADISON        FAIR      66  48  52 S8        30.13F
MITCHELL       PTCLDY    71  50  47 SE12      30.09S
6HR MIN TEMP:  71; 6HR MAX TEMP:  78;

SIOUX FALLS    MOCLDY    68  48  48 S10       30.13F
6HR MIN TEMP:  68; 6HR MAX TEMP:  74;

WINNER         FAIR      71  51  49 S21G30    30.05S
YANKTON        MOCLDY    68  52  56 SE9       30.12F
$$

MNZ071-072-080-081-089-090-097-098-230100-
SOUTHWEST MINNESOTA

CITY           SKY/WX    TMP DP  RH WIND       PRES   REMARKS
FAIRMONT       PTCLDY    68  46  45 S3        30.17F
JACKSON        PTCLDY    64  46  52 S5        30.19S
LUVERNE        PTCLDY    68  46  45 S7        30.16S
MARSHALL       PTCLDY    70  46  43 S8        30.12F
6HR MIN TEMP:  70; 6HR MAX TEMP:  75;

MONTEVIDEO     PTCLDY    70  48  46 SW9       30.12S
PIPESTONE      PTCLDY    64  46  52 S6        30.15S
REDWOOD FALLS  CLEAR     69  49  48 S7        30.13F
TRACY          PTCLDY    66  49  53 CALM      30.15S
WINDOM         PTCLDY    68  46  45 S6        30.17S
WORTHINGTON    CLEAR     66  46  48 S6        30.18S
$$

IAZ001>003-012>014-020>022-031-032-NEZ013-014-SDZ071-230100-
NORTHWEST IOWA

CITY           SKY/WX    TMP DP  RH WIND       PRES   REMARKS
CHEROKEE       PTCLDY    65  53  65 SE5       30.18F
DENISON        PTCLDY    66  52  59 S5        30.18S
ESTHERVILLE    PTCLDY    65  49  56 S7        30.17F
LE MARS        PTCLDY    66  52  59 S6        30.16F
ORANGE CITY    PTCLDY    68  46  45 S5        30.17F
SHELDON        PTCLDY    64  50  59 S6        30.16F
SIOUX CITY     PTCLDY    68  51  54 S6        30.17F
6HR MIN TEMP:  68; 6HR MAX TEMP:  75;

SPENCER        CLEAR     65  50  58 S5        30.18F
6HR MIN TEMP:  65; 6HR MAX TEMP:  73;

$$

ABBREVIATIONS USED IN REMARKS
   TC - TEMPERATURE IN CELSIUS
  WCI - WIND CHILL INDEX
   HX - HEAT INDEX
  VSB - VISIBILITY




USA.gov is the U.S. government's official web portal to all federal, state and local government web resources and services.